Location: ??????????
(44.2167°N, 135.5333°E)
Time: 13:38:09
(UTC+00:00)

Cosmos 1271 Rocket - Pass Details

Date: 15 June 2025
Orbit: 443 x 474 km, 81.2° (Epoch: 15 July)

Event Time Altitude Azimuth Distance (km) Brightness Sun altitude
Exits shadow 13:54:46 29° 79° (ENE) 900 3.8 -20.9°
Drops below altitude 10° 13:57:32 10° 31° (NNE) 1,657 5.8 -21.0°
Sets 13:59:48 0° 21° (NNE) 2,539 7.1 -21.1°
